Theta_e
296 296 297 297 297 298 299 299 299 299 299 300 301 301 302 302 301 301 303 305 308 310 309 308 308 306 305 306 305 306 306 306 309 308 307 307 305 306 306 308 307 307 306 303 303 302 302 299 300 298 297 296 296 296 294 293 293 292 291 290 290 289 288 288 290 290 288 286 286 287 288 287 289 288 287 288 288 288 288 289 288 289 288 288 288
296 295 296 296 296 297 297 297 297 296 297 298 298 299 300 301 300 300 301 302 302 304 306 307 306 305 306 305 304 304 305 305 306 307 306 306 304 304 305 304 304 305 305 303 302 301 300 298 298 299 297 296 296 295 293 292 290 290 289 288 289 290 289 289 291 290 286 286 285 284 285 285 286 287 288 288 287 288 289 289 288 288 288 288 288
294 294 294 294 295 295 296 296 296 296 296 296 297 298 298 299 300 300 300 300 300 301 303 304 304 304 304 302 302 302 302 303 303 304 305 305 303 303 303 303 303 303 302 302 303 300 300 298 297 297 297 296 294 293 292 291 291 291 289 290 287 287 288 289 290 291 286 284 284 284 281 283 285 286 286 287 289 288 287 288 289 288 288 288 289
292 292 293 293 294 294 295 295 295 295 295 295 296 296 297 297 298 298 299 299 300 300 300 301 302 301 301 301 301 302 301 300 301 301 301 303 302 300 300 301 301 301 301 300 301 300 299 298 296 295 296 295 295 294 292 292 291 290 290 290 289 288 288 289 290 290 286 287 283 285 281 282 281 284 285 285 287 288 287 287 288 288 287 287 288
291 292 292 292 292 292 293 294 295 294 295 294 295 295 296 296 296 297 298 298 299 299 299 299 301 301 301 301 299 297 296 298 297 296 296 297 300 301 301 299 300 299 299 299 299 299 297 297 295 295 295 294 294 294 293 293 291 291 291 290 289 290 288 287 289 289 287 291 288 282 281 282 283 281 283 282 284 285 286 287 287 287 287 287 287
291 291 291 291 291 292 292 293 293 294 294 295 295 295 295 295 296 296 297 297 297 298 298 298 298 297 297 297 295 294 294 295 295 296 297 297 299 297 298 298 298 298 297 298 297 297 297 297 295 294 293 293 294 294 293 291 291 290 291 291 290 289 289 287 287 290 289 288 288 287 286 286 282 282 283 285 282 284 285 286 286 287 287 287 287
291 291 290 290 290 290 291 291 292 292 293 294 295 295 295 295 295 295 295 296 297 297 297 298 297 297 296 296 295 295 294 295 295 296 296 297 298 299 298 297 298 298 297 296 296 296 296 295 295 294 293 292 292 292 292 292 292 291 291 290 290 291 287 287 288 289 288 288 288 288 287 285 284 285 284 280 281 283 283 284 285 285 286 286 287
289 289 289 289 289 289 289 290 291 292 292 293 293 294 294 294 294 294 295 295 295 296 296 296 296 296 295 295 295 295 294 295 296 297 297 296 296 297 297 297 296 297 297 295 295 295 294 295 294 294 293 291 292 292 292 291 291 291 291 291 290 290 289 288 288 287 288 288 289 288 287 287 285 285 283 288 283 280 281 282 283 285 285 286 287
289 288 288 288 288 288 289 289 290 290 291 291 292 292 293 294 294 294 294 294 295 295 295 295 295 294 294 294 294 294 294 295 295 296 296 296 295 295 295 295 296 295 296 296 294 294 294 294 293 293 293 293 290 292 291 291 290 290 290 290 290 289 288 288 287 288 288 288 286 287 286 286 287 286 285 283 283 284 281 281 282 283 284 285 286
289 288 288 288 288 288 288 288 288 289 290 291 291 291 292 292 292 293 293 294 294 294 294 294 294 294 293 293 292 292 293 294 294 294 294 294 294 294 294 294 293 294 294 294 294 293 293 293 293 293 293 293 292 291 289 290 290 289 290 290 290 290 289 288 288 287 288 289 288 288 286 285 286 288 286 284 284 282 286 280 282 282 282 285 287
288 288 287 287 287 287 288 287 287 288 289 289 290 290 290 290 291 291 291 293 293 293 293 293 293 293 292 292 292 291 292 292 292 292 292 293 292 293 293 293 293 292 292 294 293 293 292 292 292 293 292 292 292 291 290 290 290 290 290 289 289 290 290 289 289 288 287 287 287 286 287 287 287 287 288 286 288 286 284 281 280 283 284 284 284
286 286 286 286 286 286 286 286 286 286 287 288 288 289 289 289 289 289 290 291 291 292 292 292 292 292 292 291 291 291 291 291 291 290 291 291 291 291 292 292 292 292 292 291 292 292 292 291 291 291 291 291 292 292 292 291 290 289 288 288 289 289 289 289 289 289 288 287 287 287 287 287 287 288 289 290 288 288 288 286 282 281 282 283 282
285 284 285 285 285 285 285 285 285 285 285 286 287 287 287 287 287 288 288 289 290 290 290 290 291 291 291 291 291 291 291 290 290 290 290 290 290 290 290 290 291 291 291 291 292 292 291 292 292 291 292 292 292 291 291 290 290 289 289 288 288 288 289 289 288 288 288 288 287 287 288 287 287 288 289 288 288 289 286 285 282 281 282 282 282
284 284 284 284 284 284 284 285 285 284 284 285 286 286 286 286 286 286 286 288 289 289 289 289 289 289 290 290 290 291 290 290 290 290 290 290 290 289 289 289 289 289 290 290 291 291 291 291 291 291 291 290 290 290 290 290 290 290 289 288 288 288 288 288 288 288 288 288 287 286 286 287 287 287 287 287 287 287 285 285 284 282 281 282 281
283 283 283 283 284 284 284 284 285 285 285 285 285 285 285 285 285 285 285 286 287 288 288 288 288 288 289 289 289 289 290 290 289 290 289 289 289 289 289 289 289 289 289 290 290 290 290 291 291 290 290 289 289 289 291 290 289 290 289 289 288 288 287 287 287 286 288 287 286 286 286 286 286 286 286 287 287 287 287 286 285 285 282 281 281
283 282 283 283 283 283 284 284 284 285 285 285 285 285 285 284 284 284 285 285 286 286 287 287 287 288 288 288 288 288 289 289 288 289 289 289 288 288 288 288 288 288 289 289 289 289 289 289 289 290 290 289 289 288 288 288 288 288 288 287 287 288 287 286 286 285 286 286 286 287 285 285 285 285 286 287 287 287 287 286 285 286 286 284 280
282 282 282 283 282 283 284 284 285 285 285 286 286 286 286 286 286 285 286 286 286 286 286 287 287 287 287 287 288 288 288 287 288 287 288 288 288 288 288 288 288 288 288 289 289 288 288 288 288 289 289 289 288 288 287 286 286 286 287 286 286 287 286 285 286 285 285 285 286 285 286 287 285 285 285 285 286 286 287 287 287 288 287 286 284
283 283 283 283 284 283 283 284 283 284 284 285 285 285 285 286 286 285 285 286 286 287 287 287 287 286 286 286 286 287 287 287 288 287 287 287 287 288 288 287 287 288 288 288 288 287 287 287 287 287 287 288 288 287 287 287 286 287 286 286 286 286 285 285 285 285 285 285 285 285 285 285 285 285 285 285 285 285 285 286 287 287 288 287 286
284 283 283 283 283 284 284 284 286 286 286 286 287 287 286 285 285 285 285 285 285 287 287 287 287 287 286 286 286 286 286 286 286 286 286 286 286 287 287 287 287 287 287 286 286 286 286 286 286 286 287 287 287 287 287 287 286 286 286 286 286 285 285 285 285 285 285 284 284 284 284 284 284 284 284 284 284 284 285 285 286 287 286 288 287
284 285 284 284 285 285 284 284 285 286 286 287 288 287 285 285 285 285 285 284 284 285 285 285 285 285 285 285 285 286 286 286 285 284 284 284 285 285 285 285 286 286 286 286 286 286 286 285 286 286 286 286 286 287 287 287 287 287 287 286 286 285 285 285 285 285 285 285 284 284 284 284 284 284 284 284 284 284 284 284 284 284 285 286 287
285 285 286 286 286 284 284 283 283 283 283 284 284 284 284 283 283 284 283 283 283 284 285 285 285 284 284 282 282 283 283 285 285 285 284 284 285 285 284 284 284 283 284 284 285 285 285 286 286 286 286 286 286 286 286 286 286 286 286 286 286 286 285 285 285 285 285 284 284 284 284 284 284 283 284 284 284 284 283 284 284 284 284 284 285
284 284 284 284 283 283 282 282 283 284 284 283 284 284 283 283 283 283 281 281 283 282 283 283 284 285 284 284 283 283 283 283 283 283 283 283 283 284 284 284 283 283 283 283 283 284 284 285 285 285 285 285 285 286 286 286 286 286 286 287 286 286 285 285 285 284 285 285 284 284 284 284 284 283 284 284 284 283 283 283 283 283 283 284 284
284 284 284 284 285 284 284 283 283 283 283 282 282 283 283 282 282 282 282 281 281 282 281 281 281 281 281 281 281 281 281 282 282 282 282 282 282 283 283 282 281 281 282 282 282 283 283 283 283 284 284 284 285 285 285 285 285 285 285 285 286 286 285 285 285 285 285 285 284 284 284 284 285 284 284 283 283 283 283 283 284 283 283 284 283
284 283 283 283 282 282 282 281 281 280 280 280 280 280 280 280 280 280 280 280 280 280 280 280 280 279 278 278 279 279 280 279 280 281 281 282 282 282 282 282 281 280 281 281 281 282 282 283 283 283 283 283 283 284 284 285 285 285 285 285 285 285 285 285 285 285 285 285 284 284 284 284 283 283 284 284 283 283 283 283 283 284 283 284 284
281 281 281 281 280 280 280 280 280 279 279 279 279 280 280 280 280 280 280 280 280 280 280 280 279 279 279 279 278 278 278 279 279 280 280 281 281 282 282 282 281 280 281 281 281 281 281 282 282 282 282 282 283 283 284 284 284 284 284 284 284 285 285 285 285 285 286 285 285 285 285 284 283 283 283 283 283 283 283 283 283 283 283 283 284
280 280 280 280 281 280 279 279 279 279 279 279 279 279 279 279 279 279 280 280 280 279 279 279 278 278 278 278 278 277 278 278 278 279 280 280 281 281 281 281 281 280 280 280 280 281 281 281 281 281 282 282 282 283 283 283 284 284 284 284 284 284 284 284 285 285 284 284 285 285 285 284 284 283 284 284 283 283 283 283 283 283 283 283 282
278 279 279 278 279 279 279 278 279 279 279 279 279 279 278 278 278 278 278 279 279 279 279 279 279 278 278 278 277 278 278 278 278 279 279 279 279 280 279 280 280 280 279 279 279 279 280 280 281 281 281 282 282 282 282 283 283 283 283 284 284 283 284 284 284 284 285 284 284 284 284 284 284 284 284 284 284 283 284 283 283 283 283 283 282
278 278 278 279 279 278 279 279 279 279 279 279 279 279 280 279 280 279 279 279 281 280 279 279 278 279 278 279 278 278 278 279 279 278 278 279 279 279 279 279 279 279 279 279 279 279 280 280 280 281 281 281 281 281 282 282 282 282 283 283 283 283 283 283 284 284 284 284 284 284 284 284 284 284 284 284 284 284 284 284 284 284 283 283 282
279 279 278 278 279 279 279 279 279 279 279 279 279 279 279 278 278 279 279 279 279 280 279 278 278 278 279 279 280 280 281 281 280 280 279 279 279 278 279 279 278 279 279 279 279 279 278 278 279 279 280 281 281 281 282 281 281 282 282 282 282 283 283 283 283 283 284 284 284 284 284 285 285 285 286 286 286 286 285 284 284 284 283 283 283
279 279 278 277 278 278 278 279 279 279 278 279 279 279 279 279 280 279 279 279 279 278 278 278 278 278 278 279 279 279 280 280 280 280 280 280 280 280 280 279 279 279 279 279 278 278 278 278 278 278 278 279 280 281 282 285 286 284 282 283 283 283 283 282 282 283 283 283 283 284 284 285 286 286 286 287 288 288 288 286 285 284 283 283 283
277 277 278 278 278 278 278 278 278 278 279 279 279 279 279 279 279 278 278 278 277 278 277 277 278 278 278 278 278 279 279 279 279 279 280 280 280 280 280 279 279 279 279 279 279 279 279 279 279 278 278 279 279 280 283 285 286 286 285 283 282 282 282 282 282 282 282 282 282 283 283 284 285 285 285 287 288 288 288 288 289 288 287 285 283
277 277 277 277 277 278 278 278 278 278 279 279 279 279 279 279 278 278 277 277 277 277 276 277 277 277 277 278 278 278 278 278 278 278 279 279 279 279 278 278 278 278 279 279 278 278 279 279 279 278 278 278 279 282 284 285 285 286 286 283 282 282 282 281 282 282 282 282 281 282 282 283 284 284 284 284 285 287 288 288 288 288 289 289 288
276 277 277 277 278 278 278 278 278 278 279 279 278 278 278 277 277 276 276 276 276 276 276 276 276 276 276 276 277 277 277 277 277 277 277 277 277 277 277 277 277 278 278 277 277 278 277 278 278 277 277 278 278 282 283 284 284 285 285 284 282 282 281 281 281 281 281 281 280 281 281 282 283 285 285 284 283 284 286 287 288 288 288 289 289
276 277 277 277 278 278 278 278 278 278 278 278 277 276 276 275 275 275 275 275 275 275 275 275 275 275 275 275 275 275 275 275 275 275 275 274 274 274 275 276 276 276 276 275 276 276 276 276 276 276 277 277 277 280 282 283 283 283 284 284 282 281 281 281 281 281 281 280 280 280 280 281 282 283 283 283 283 283 283 283 283 284 284 285 287
277 277 277 278 278 277 277 277 277 277 276 275 275 274 274 274 274 274 274 274 274 274 274 274 274 274 274 273 273 273 273 273 273 272 272 272 272 273 273 273 273 273 273 273 273 273 274 274 274 275 275 275 276 279 280 281 282 283 284 284 281 281 281 281 281 281 281 281 281 281 281 281 281 282 282 283 283 283 282 282 282 282 283 283 284
277 277 278 278 277 277 277 277 276 275 274 273 273 273 272 272 273 272 273 273 272 272 272 272 272 272 272 272 272 271 270 270 270 270 269 270 270 270 269 270 270 270 270 270 270 271 271 271 271 272 272 272 273 277 278 279 281 282 283 280 279 279 279 279 279 280 280 281 281 281 281 281 281 281 283 286 286 284 282 281 281 282 282 282 283
277 277 278 278 277 276 276 275 273 273 272 272 272 271 271 271 271 271 271 271 271 270 270 271 270 271 271 270 270 268 268 267 268 267 267 266 266 266 266 267 266 266 267 267 267 268 269 269 269 269 270 270 271 274 276 277 279 280 280 277 277 278 278 278 278 279 280 280 281 281 281 280 281 280 283 286 287 287 283 282 281 281 282 282 282
277 277 277 276 275 275 274 274 272 271 271 271 271 270 270 269 269 269 269 268 268 268 269 269 269 268 268 268 267 266 266 265 265 264 264 264 264 264 264 265 264 264 264 265 265 265 266 266 267 267 268 268 269 271 275 276 277 278 278 275 276 276 276 277 277 278 279 280 280 282 282 280 280 280 284 285 286 285 283 282 281 281 281 281 281
277 276 275 275 274 273 273 272 271 270 270 270 269 268 267 266 267 267 267 267 267 267 267 267 266 266 266 266 265 264 264 263 262 262 262 262 262 262 263 263 263 263 263 263 263 263 263 264 265 266 267 266 266 268 272 273 275 276 274 273 274 274 275 276 276 276 278 278 278 280 281 282 281 282 284 285 286 285 283 282 281 281 280 280 281
275 274 274 273 273 272 271 270 269 269 269 268 267 266 265 266 266 266 265 265 266 266 266 265 265 265 264 264 263 263 262 262 261 261 261 261 262 262 261 261 261 261 261 262 262 262 261 262 263 263 264 264 264 265 267 272 274 275 275 273 273 273 273 274 275 276 276 277 278 278 279 282 283 284 285 285 285 285 284 282 282 281 280 280 282
274 274 275 272 271 271 270 269 268 268 267 266 265 264 264 264 265 264 263 265 265 265 264 264 264 263 262 262 262 261 261 261 261 261 261 261 261 261 261 260 260 260 260 260 260 260 261 261 262 263 263 264 265 265 266 272 273 274 275 274 271 272 273 274 274 275 275 275 276 277 277 280 282 282 283 283 284 285 286 284 283 281 281 283 285
274 273 271 270 270 268 268 267 267 266 266 265 264 262 263 263 263 262 263 264 264 263 263 262 262 261 261 260 260 260 260 260 260 260 259 259 260 260 260 259 259 259 259 259 259 260 260 260 261 262 263 263 265 267 265 269 271 272 273 274 271 270 272 272 272 273 274 275 276 276 276 278 280 281 281 283 284 285 285 285 284 287 287 287 285
270 269 270 269 267 267 266 266 266 265 265 265 262 260 261 261 261 262 263 263 263 262 262 261 261 260 260 259 259 259 259 260 259 259 259 258 259 258 258 259 258 258 258 258 258 259 259 259 260 261 262 263 264 264 268 266 270 272 272 273 274 273 274 272 271 270 271 273 275 276 277 279 280 281 282 283 284 284 284 283 286 287 288 288 287
269 268 267 265 265 265 265 265 264 264 263 263 260 260 260 260 260 262 262 262 261 261 260 259 259 259 259 259 259 259 259 259 259 259 258 257 257 257 258 258 258 258 258 258 258 258 259 258 259 259 260 262 263 263 266 269 268 271 272 273 273 273 274 270 270 270 271 272 272 273 274 277 279 280 281 282 283 283 282 284 285 286 287 287 286
268 266 265 264 264 263 263 262 264 262 262 261 260 259 259 259 261 261 261 260 260 259 258 258 258 258 258 258 258 258 258 258 258 258 257 257 257 257 257 257 258 257 257 257 257 258 258 258 258 258 259 260 261 262 262 265 269 270 271 272 272 273 273 273 269 269 269 269 272 275 277 277 278 279 280 280 280 281 283 284 284 285 285 284 284
265 264 264 262 262 261 260 261 261 262 261 261 259 258 257 259 261 261 260 259 258 258 258 258 258 258 258 258 258 258 258 258 258 258 258 258 258 258 257 257 257 257 257 257 257 257 257 257 257 258 259 259 260 261 261 262 265 266 267 269 271 272 272 272 272 270 273 274 275 275 276 276 276 276 276 277 277 278 280 282 283 284 282 282 283
263 264 262 261 260 260 260 260 259 260 260 259 257 258 259 260 259 260 260 259 257 257 257 257 257 258 258 258 257 257 258 258 258 258 258 258 258 258 257 257 257 256 256 256 257 257 257 257 258 258 259 260 260 261 261 262 263 263 263 264 265 266 269 271 268 267 269 268 270 271 271 274 275 276 276 276 276 278 279 279 279 281 281 282 283
264 263 260 259 260 259 259 258 259 260 258 258 257 258 258 258 258 259 258 257 257 257 257 257 257 257 258 258 257 259 258 258 258 258 258 258 258 257 256 256 256 256 256 256 257 258 258 259 259 260 261 261 262 262 263 263 264 264 264 265 265 266 265 265 266 267 267 268 269 271 272 271 271 271 272 273 274 276 278 279 278 280 281 281 283
262 260 259 259 259 257 257 257 258 258 257 256 256 257 257 258 259 258 257 256 257 257 257 257 257 257 257 258 258 258 258 258 258 258 258 258 257 257 257 258 259 260 260 260 260 262 263 263 263 263 263 263 263 264 265 269 268 270 269 268 268 268 268 268 270 272 270 270 270 270 269 270 270 271 272 272 273 274 276 279 280 280 280 280 280
261 259 259 258 258 257 256 257 258 258 257 256 256 257 257 258 258 257 256 256 257 257 257 257 257 257 257 258 258 258 258 258 258 257 257 258 261 264 263 261 261 265 268 269 269 264 265 265 265 265 265 264 264 265 271 273 272 272 273 273 273 273 273 272 273 275 273 270 269 269 269 269 269 270 270 271 272 273 274 276 278 280 280 279 280
259 258 257 257 257 256 256 255 257 256 256 256 257 257 257 257 258 258 257 256 256 257 257 257 257 257 258 258 258 257 258 258 258 258 257 257 257 259 264 266 267 267 268 269 270 270 270 270 267 265 267 271 272 272 272 272 272 272 273 273 273 273 274 274 274 271 269 269 268 268 268 269 269 270 270 270 271 271 272 273 275 278 279 279 280
Wind_Speed
6 9 12 13 14 13 12 11 11 14 14 14 15 15 14 12 13 12 9 10 8 7 7 7 6 4 4 5 2 3 4 4 5 4 2 1 3 3 4 5 5 5 5 6 7 7 7 6 6 6 6 7 7 9 8 8 6 6 6 4 8 6 5 4 6 7 8 2 2 0 1 1 1 1 5 6 5 5 5 7 6 5 5 5 5
8 13 14 14 14 14 12 12 13 16 14 14 14 13 12 13 12 11 10 10 10 7 7 7 5 2 4 2 2 3 4 3 2 3 3 3 2 1 1 2 4 4 5 5 5 6 6 6 6 7 7 7 8 6 5 5 5 5 4 4 4 8 7 7 8 9 3 7 6 3 2 3 3 3 5 5 5 5 6 6 6 7 7 6 5
12 12 13 14 14 13 11 11 12 11 12 13 12 14 13 11 10 10 10 9 9 9 8 6 6 7 6 4 4 3 3 2 3 2 2 2 3 1 1 2 3 3 4 4 4 4 5 6 6 6 7 7 7 6 6 7 7 8 7 8 6 4 4 4 9 10 7 4 3 4 3 2 4 4 5 6 6 5 5 7 7 6 7 6 6
13 12 13 13 12 11 12 12 11 12 13 13 13 12 10 10 10 10 10 10 9 9 8 5 4 4 4 5 4 6 3 3 4 5 5 3 3 2 1 1 2 3 2 3 3 3 4 5 5 5 6 6 8 8 7 9 8 7 7 8 7 6 5 7 8 9 6 10 4 6 4 3 3 9 10 5 7 6 7 8 6 7 6 6 6
11 12 11 11 12 12 11 10 9 12 12 12 11 10 8 10 10 9 9 9 9 10 10 9 10 9 8 7 6 5 5 7 6 5 3 2 1 1 0 0 1 2 2 3 4 4 4 4 4 4 5 6 6 7 8 9 9 10 11 9 9 10 9 5 7 8 8 11 8 5 2 2 7 3 3 5 3 6 7 6 7 6 7 7 7
11 10 9 8 9 9 10 11 12 11 12 10 9 10 10 10 11 10 10 10 10 10 9 8 8 8 8 8 8 6 6 7 7 4 6 3 2 1 1 0 0 0 1 2 3 3 4 4 4 3 4 4 5 6 7 6 7 8 8 9 10 9 9 6 6 8 8 8 6 4 5 7 5 4 3 5 1 4 4 6 7 7 6 8 7
9 9 8 10 9 10 11 12 11 12 10 7 9 10 11 10 10 10 10 10 10 10 11 9 9 8 7 7 6 6 6 4 3 3 5 5 1 1 1 1 0 1 2 2 2 3 3 3 3 4 4 4 4 5 5 6 7 8 7 7 9 8 5 8 10 10 7 8 8 10 2 0 4 7 7 3 2 2 4 6 7 6 7 7 8
8 8 9 8 9 9 10 9 9 9 7 8 9 9 11 11 11 11 10 11 11 10 11 10 9 8 9 8 7 7 6 5 6 6 6 6 4 3 2 3 2 2 2 2 2 2 3 4 3 3 3 4 4 5 7 6 6 5 6 7 7 7 8 9 8 7 11 10 10 12 9 2 1 2 2 10 5 4 5 3 3 7 6 7 9
8 8 8 8 8 8 7 9 6 8 9 9 9 8 8 10 11 12 13 12 11 12 11 12 10 9 8 8 9 7 7 7 6 7 8 7 8 8 6 4 3 3 2 3 3 2 3 4 4 4 4 4 4 5 5 5 6 7 6 7 7 8 7 7 6 8 8 10 5 10 8 8 5 3 1 1 5 5 5 7 7 1 3 7 9
7 8 6 7 6 7 6 6 9 8 7 7 7 8 9 10 13 14 13 11 10 12 12 12 11 10 11 10 10 9 8 8 8 9 8 8 8 8 8 8 7 5 4 3 3 3 3 3 3 4 5 5 4 4 4 5 5 6 7 7 8 9 7 8 10 7 7 7 7 5 8 7 5 5 4 3 3 3 7 7 8 10 10 11 10
6 7 6 6 5 5 6 10 8 8 8 9 9 9 9 10 11 14 11 10 11 11 12 13 12 12 11 10 11 10 10 8 9 10 9 9 9 8 8 7 7 7 6 6 4 4 3 3 3 4 4 4 4 4 5 6 6 6 6 6 6 8 8 8 8 8 7 7 8 7 9 9 12 11 10 7 8 6 3 5 4 9 13 9 7
5 5 6 4 5 7 8 10 9 8 9 10 9 9 10 9 10 13 12 11 10 10 12 12 11 12 11 11 12 11 10 9 10 10 9 9 8 9 8 8 8 7 8 8 7 6 5 4 3 3 4 4 5 5 5 5 6 5 5 5 6 6 7 8 8 10 9 7 8 8 8 7 8 8 6 7 9 9 9 9 7 4 5 6 3
4 4 5 6 7 8 9 8 9 9 7 7 8 8 8 10 10 12 11 9 9 10 11 11 12 12 11 11 10 9 10 10 9 9 9 8 8 9 9 9 8 9 9 9 9 9 7 6 5 5 4 5 5 4 5 5 5 5 5 5 6 6 7 8 8 9 10 10 9 8 8 8 10 7 6 6 6 6 5 8 4 3 7 5 5
4 4 5 5 5 5 6 6 6 6 7 8 9 9 7 8 8 9 8 8 7 9 10 11 11 10 10 10 9 8 9 9 9 9 8 8 7 8 8 8 8 8 8 8 8 8 8 7 5 5 4 4 4 4 5 5 5 6 5 6 6 7 6 7 9 9 9 10 7 8 8 8 9 7 8 6 7 6 7 8 4 4 2 4 1
3 4 4 5 5 5 5 5 5 5 7 8 8 8 8 9 8 9 9 10 9 8 8 9 8 8 8 8 8 8 8 8 8 7 8 9 8 8 8 7 7 7 8 7 9 8 8 9 9 6 5 4 4 4 5 5 5 5 5 7 7 6 6 7 7 7 9 9 9 9 8 8 7 7 8 9 7 8 8 7 7 8 4 3 5
3 4 5 5 4 4 4 4 5 5 6 7 8 7 8 6 6 7 6 6 8 8 7 7 7 7 8 9 8 7 6 5 6 7 7 6 7 7 8 8 7 7 8 9 9 8 8 8 8 8 7 6 5 4 5 4 5 5 7 6 7 5 7 7 7 7 8 9 10 9 8 9 6 7 7 8 8 8 8 6 7 9 11 11 4
3 4 4 4 3 3 3 4 5 6 6 6 6 6 7 8 9 10 9 8 8 6 6 6 6 8 9 8 8 8 8 8 7 7 6 6 5 6 6 7 7 7 8 7 9 9 8 8 7 8 8 7 7 6 6 5 5 5 6 6 7 7 6 7 7 7 7 8 7 8 9 9 8 7 7 7 8 7 8 8 9 12 9 12 10
3 3 3 3 3 3 4 4 4 4 4 5 6 4 5 6 7 8 9 11 10 10 9 9 8 8 8 8 7 7 7 6 6 6 4 4 4 4 4 6 6 6 6 7 7 9 9 9 8 8 7 7 7 6 6 6 6 6 6 6 7 6 7 7 6 7 8 7 8 8 7 8 7 7 8 7 8 8 8 9 9 10 9 14 13
3 3 3 3 3 4 4 4 4 4 3 3 4 4 5 4 5 4 5 5 5 6 7 8 8 7 7 8 8 7 6 5 5 5 5 5 6 6 5 5 5 6 6 7 7 8 8 8 7 7 8 8 7 7 6 6 6 7 7 7 6 5 6 7 7 6 7 6 7 9 8 8 6 8 8 7 7 7 8 7 8 8 10 13 14
3 3 3 3 4 3 2 3 3 3 3 3 3 3 4 4 4 4 4 5 6 7 7 8 7 6 7 6 7 7 8 8 7 5 5 3 3 3 4 5 6 5 5 5 5 6 7 7 7 7 7 7 7 7 7 6 6 6 6 7 8 6 7 8 8 7 6 6 7 8 9 8 7 7 8 7 8 8 7 8 8 8 10 11 11
3 3 2 3 2 1 0 0 1 2 2 2 1 1 0 1 1 1 1 1 2 2 2 3 2 3 3 3 4 4 5 4 5 6 6 7 7 7 6 4 4 4 3 6 6 7 7 6 7 7 6 7 7 8 6 6 6 7 7 6 7 7 8 8 7 9 7 6 8 8 9 8 6 8 8 7 8 7 8 8 8 8 9 9 10
3 3 3 2 2 2 2 1 0 1 2 1 2 1 2 1 1 0 1 1 0 2 1 2 3 2 2 3 3 2 2 3 2 3 3 4 4 5 6 7 8 8 6 7 6 5 5 7 6 7 6 6 7 7 7 6 6 6 7 6 6 7 8 8 7 8 8 7 7 9 10 8 7 9 9 9 8 8 8 9 9 8 9 9 8
4 4 3 2 1 1 1 1 1 2 2 2 3 3 3 3 2 2 1 2 1 2 2 2 2 3 3 3 3 3 3 4 3 5 4 5 4 4 4 3 5 6 6 6 7 8 8 6 5 5 5 5 6 7 7 7 8 7 7 7 7 7 8 8 8 9 9 8 8 8 9 8 6 8 9 8 8 9 8 9 11 8 10 10 8
4 4 3 4 4 2 1 2 2 3 2 3 3 3 4 4 4 3 3 4 4 4 3 2 3 3 4 3 3 3 3 4 4 5 4 5 5 4 4 4 5 4 6 7 6 8 8 9 10 10 8 6 5 5 6 6 7 8 8 9 8 8 8 8 9 9 9 8 9 10 9 8 8 10 10 8 9 8 9 9 10 10 9 11 8
4 4 4 4 3 2 3 4 4 3 3 3 3 3 2 3 3 3 4 4 4 4 3 4 3 4 4 4 4 4 4 4 5 4 5 5 5 5 4 5 5 5 6 6 6 5 7 7 8 9 10 10 10 9 8 7 6 6 7 8 8 8 8 9 9 9 9 9 9 10 10 7 8 10 10 9 8 10 10 9 11 10 9 9 7
5 5 4 5 5 5 4 4 4 4 4 4 4 3 3 4 4 4 4 4 4 4 4 3 3 3 3 3 4 4 4 5 5 5 6 7 7 6 6 5 5 7 6 6 7 7 6 8 7 7 7 9 9 9 10 10 9 9 7 8 8 8 8 9 9 8 8 8 9 10 10 9 9 10 11 10 9 10 10 11 11 10 9 8 9
5 5 5 3 3 5 6 5 5 5 5 5 4 4 4 3 3 3 3 2 2 1 1 1 1 1 2 3 3 4 4 4 4 5 5 5 6 7 7 8 7 7 8 8 7 8 7 7 8 7 8 9 9 8 9 11 11 10 10 10 9 8 9 8 8 9 9 8 9 9 10 9 10 10 11 11 10 10 10 11 11 11 10 9 11
2 3 4 5 6 6 5 5 5 5 5 4 4 4 4 4 4 4 4 3 2 1 3 4 4 5 5 6 4 4 4 5 5 5 5 6 6 6 7 7 7 7 8 8 9 9 9 7 8 8 9 8 8 9 9 10 10 10 10 11 10 11 11 9 9 9 9 9 9 9 10 10 10 11 11 11 10 11 10 11 10 9 9 10 11
3 4 5 5 5 5 5 5 4 4 4 5 5 4 4 4 4 5 4 4 2 1 3 3 4 5 6 6 8 8 8 9 8 8 7 7 6 6 6 6 6 7 7 8 8 8 9 9 8 9 10 9 9 10 8 8 9 10 9 10 11 12 12 12 11 10 10 10 9 9 10 10 12 14 17 15 14 12 10 10 11 8 9 11 11
4 5 4 4 4 4 4 4 4 4 5 7 7 7 6 6 7 6 5 6 5 5 5 5 5 5 6 6 7 8 9 11 13 13 13 12 11 10 10 10 10 9 8 8 7 8 7 8 8 8 8 8 10 9 13 19 16 12 11 10 11 12 11 11 12 12 12 11 10 10 10 15 17 18 18 18 19 19 19 15 12 9 10 10 11
4 2 1 3 4 5 5 6 5 5 4 3 3 4 4 4 4 4 4 4 5 6 5 5 6 5 6 6 7 8 9 10 11 11 12 13 14 12 12 12 12 11 12 11 10 11 11 10 10 11 11 10 9 10 16 19 22 24 17 13 13 12 12 12 12 13 13 13 12 10 10 12 14 15 15 19 19 20 20 21 22 21 16 13 11
2 3 4 5 5 5 5 4 4 3 2 2 3 4 4 4 4 5 4 4 5 5 5 5 5 5 6 8 8 9 10 10 9 10 10 10 11 12 13 13 13 13 12 10 11 11 12 11 11 12 13 13 12 13 21 22 23 24 21 15 13 12 12 12 12 12 12 12 13 12 11 9 10 11 12 11 14 18 20 21 22 22 22 23 22
4 4 4 5 5 5 5 4 3 3 3 2 2 4 4 4 5 4 4 6 6 6 6 7 7 6 6 7 7 8 9 9 9 9 9 9 10 11 13 13 14 13 13 13 13 13 13 13 12 13 14 14 14 16 24 26 26 26 27 22 13 14 14 14 14 14 13 13 12 12 12 11 10 16 14 12 11 12 16 21 21 22 22 23 24
4 4 4 5 5 4 3 3 3 2 2 2 4 4 3 3 4 5 7 6 7 8 7 7 7 6 6 6 7 7 9 9 8 8 9 11 12 12 12 11 12 13 14 15 15 15 14 13 12 13 14 14 16 18 27 28 28 29 28 24 15 15 15 15 15 15 14 14 14 13 12 12 11 12 11 12 11 12 11 12 12 13 13 16 21
4 4 4 5 5 4 3 3 3 4 4 5 6 5 4 6 7 8 6 7 7 7 7 7 8 8 7 7 8 8 8 8 9 9 11 11 11 12 12 11 11 12 13 14 13 15 14 15 13 13 12 15 14 26 29 30 30 30 30 26 16 15 15 15 16 15 16 15 15 14 14 14 13 13 11 12 12 12 12 11 12 12 13 13 13
5 5 5 6 4 4 4 4 3 6 5 6 5 4 6 6 5 6 6 6 6 7 7 7 8 8 8 8 8 9 10 10 10 11 11 11 11 11 12 11 12 12 12 13 14 14 15 17 16 16 14 18 18 30 31 31 32 30 31 19 15 15 15 16 16 16 16 15 14 15 14 15 15 15 13 19 18 13 12 13 14 13 13 13 13
4 5 6 5 5 4 4 5 5 6 6 5 4 5 5 5 6 5 6 6 7 8 8 8 8 7 8 8 9 9 11 11 11 11 11 11 11 12 11 10 12 13 12 12 12 13 13 14 17 16 16 15 18 26 31 32 32 34 26 16 15 14 14 15 16 16 16 16 15 15 14 14 14 15 15 20 21 21 14 15 14 15 14 13 13
5 4 5 4 4 6 5 7 7 6 5 3 4 5 5 5 5 6 6 7 6 7 7 7 7 7 9 9 9 9 11 11 11 11 12 12 10 9 10 9 11 13 13 12 11 13 13 14 14 16 13 16 16 24 32 31 32 31 27 18 15 13 15 14 15 15 14 14 16 22 20 17 16 17 18 23 23 19 15 15 15 15 16 14 14
6 7 5 4 5 6 6 7 6 6 4 3 4 4 5 5 5 6 6 7 7 7 6 7 9 9 9 8 8 9 10 11 12 12 11 12 12 11 11 9 11 10 13 11 12 12 13 12 11 13 24 22 18 22 30 30 32 30 24 16 14 13 15 14 14 14 15 13 15 17 24 22 19 19 25 26 27 21 15 15 16 15 16 15 15
4 4 5 5 4 5 6 6 5 3 2 3 3 3 4 5 6 5 6 6 6 5 6 7 8 8 7 8 8 9 10 10 12 13 12 11 11 11 11 11 12 10 12 11 13 12 16 14 11 12 14 15 17 17 21 30 29 29 28 18 13 12 14 15 15 13 13 13 14 15 16 24 29 30 30 32 32 31 21 16 15 15 15 17 13
5 5 5 5 5 6 6 5 4 3 3 3 3 4 4 4 5 5 6 6 5 6 7 7 8 8 8 8 8 8 11 11 10 11 12 11 9 12 12 11 11 12 11 12 14 13 13 14 11 12 12 12 11 16 18 27 27 27 28 24 14 14 13 13 13 16 14 16 15 14 14 22 30 32 32 34 34 34 31 20 17 16 16 16 15
5 5 5 5 5 5 4 3 3 3 2 2 2 4 4 5 4 5 5 5 6 7 7 7 7 8 8 8 8 9 9 10 10 10 12 12 9 11 11 12 10 11 13 14 13 13 13 14 11 11 11 13 14 22 18 23 27 28 27 28 17 15 17 16 16 15 14 14 15 15 15 22 33 35 35 34 34 31 35 21 17 19 22 23 19
4 4 3 4 4 4 2 2 1 1 2 2 3 4 5 4 6 7 5 6 6 7 7 7 8 9 9 9 9 9 10 9 10 10 12 13 12 11 12 11 12 13 13 14 12 12 12 13 11 10 8 11 11 12 23 21 25 27 27 26 27 22 26 18 15 17 17 16 15 15 15 24 30 33 32 32 32 34 31 21 27 29 25 25 23
4 4 3 4 4 2 1 0 1 1 1 2 3 4 4 6 8 6 5 6 6 6 7 8 8 9 9 9 9 9 9 9 10 11 11 11 12 10 11 9 11 11 12 11 11 10 12 11 13 10 9 9 10 10 16 25 23 28 27 28 28 29 28 19 17 17 17 17 16 15 17 29 32 32 33 33 34 33 24 29 32 34 29 25 16
5 4 3 3 3 1 1 1 1 1 2 1 1 4 6 8 8 4 6 7 7 7 7 9 9 9 9 9 9 9 10 9 9 9 11 10 11 10 11 9 10 10 11 11 11 11 11 11 11 12 11 10 10 11 12 17 27 27 29 29 29 30 28 28 19 16 17 17 23 33 35 33 32 35 38 38 33 32 35 35 37 32 26 16 15
4 3 3 2 1 1 3 4 2 1 1 1 2 3 7 8 7 6 7 7 7 8 9 10 10 9 10 10 11 10 9 9 9 8 9 9 10 11 10 11 10 10 11 11 11 11 10 11 11 11 11 12 11 11 11 12 15 19 20 26 30 30 29 29 28 23 29 33 33 32 34 33 30 26 21 18 17 18 26 31 32 30 17 15 14
3 3 2 1 2 4 5 5 4 1 1 1 3 4 6 7 7 8 7 7 7 9 10 10 10 10 10 9 10 10 10 9 8 9 8 9 9 9 9 10 10 11 10 11 12 12 12 12 11 12 12 12 10 10 11 11 10 12 12 14 16 16 22 25 19 16 18 17 21 21 19 25 26 34 33 29 27 28 25 22 19 16 15 15 14
4 3 2 1 2 4 5 5 5 3 2 3 4 5 6 6 6 7 6 7 8 8 10 11 12 10 9 9 10 9 10 10 9 9 10 10 9 9 9 10 11 10 11 11 11 11 12 13 12 12 12 11 11 9 9 10 11 11 12 12 12 12 12 11 13 14 15 16 16 19 22 16 15 15 16 14 14 15 18 18 17 16 15 14 15
1 1 2 2 2 4 4 4 6 4 3 4 5 6 5 6 6 6 7 7 9 9 10 10 10 9 10 9 9 9 10 10 10 9 9 9 10 10 11 11 12 9 10 12 12 12 12 11 11 11 12 12 11 12 10 17 19 23 20 15 11 10 9 10 14 22 19 15 14 14 13 14 13 13 12 12 12 15 17 16 16 15 12 11 11
2 1 1 1 2 2 4 5 6 4 4 4 5 5 5 6 6 6 6 7 9 10 9 10 9 9 9 9 9 9 9 10 10 10 11 11 14 22 16 14 13 21 28 29 25 17 16 14 13 11 10 14 13 14 27 33 29 28 29 30 28 29 28 23 26 32 23 16 12 12 13 11 12 10 11 12 12 13 14 14 12 14 14 11 11
1 2 2 1 2 2 4 5 6 4 4 5 6 7 6 6 6 6 6 7 8 9 9 9 9 9 10 11 10 10 10 9 10 10 10 11 12 14 23 25 24 26 26 28 28 30 31 29 21 15 16 28 31 32 31 30 31 29 30 30 30 30 30 30 30 22 15 11 10 11 11 11 11 11 11 10 11 12 14 13 13 12 13 14 15
Wind_Direction
37 43 39 35 32 29 30 30 29 36 32 33 38 36 39 41 44 36 24 31 37 35 37 44 36 20 30 38 39 9 25 21 39 18 44 87 146 156 170 175 178 181 182 171 182 181 186 178 175 181 177 180 186 196 192 200 203 196 187 185 178 183 204 179 170 141 132 81 17 26 296 303 268 198 202 206 204 202 201 186 192 180 202 192 185
44 41 36 37 31 29 30 30 27 34 25 33 39 38 38 38 40 38 33 34 34 37 43 47 37 75 86 25 69 31 20 26 9 1 21 23 50 109 156 172 184 193 193 187 186 184 184 181 184 187 178 191 197 190 189 196 191 193 169 197 215 187 199 184 176 131 185 176 159 227 311 314 292 284 247 238 220 217 203 193 188 190 197 201 192
48 48 42 39 36 32 32 32 32 32 32 34 32 39 37 36 34 36 36 39 32 30 40 45 50 42 60 36 47 57 43 56 69 348 34 62 45 44 114 155 182 209 207 199 194 198 194 187 194 186 187 185 184 192 190 197 197 194 185 191 203 243 210 198 185 193 163 132 104 92 243 212 292 287 266 240 227 216 200 200 195 193 199 195 191
51 44 42 38 39 35 32 33 30 34 34 31 28 33 36 35 34 36 35 35 32 29 38 33 73 97 74 73 56 84 85 24 36 25 16 24 17 14 51 130 176 208 219 220 226 217 204 202 197 187 197 189 190 192 193 203 197 195 194 206 179 194 211 212 209 199 141 141 193 202 208 148 290 242 220 238 206 211 196 207 196 204 197 203 194
60 51 43 41 40 35 32 31 35 42 39 37 31 29 32 32 33 39 42 38 34 31 32 36 30 25 15 20 30 16 4 22 18 350 357 358 341 1 319 89 162 207 221 225 225 228 226 227 208 207 199 200 194 199 199 204 200 199 197 197 190 195 212 213 219 221 211 204 154 104 38 265 222 244 157 269 190 211 222 207 207 202 201 201 202
62 58 52 47 48 40 33 32 37 40 40 36 35 35 33 31 29 30 35 35 34 33 34 44 49 49 41 42 32 24 18 13 9 336 325 309 247 286 348 23 111 293 265 248 250 249 241 235 225 207 218 210 205 210 210 207 211 206 204 199 204 213 203 190 215 235 231 240 240 232 145 181 185 228 124 260 340 244 227 215 212 208 202 202 208
47 50 48 49 39 40 37 34 29 38 33 29 39 41 41 38 34 35 34 32 28 31 34 38 45 46 54 60 58 49 32 0 340 344 332 299 280 290 287 313 234 189 269 272 264 257 260 260 244 229 220 218 221 219 222 217 215 213 206 206 213 212 184 201 208 214 233 261 254 255 290 130 171 129 214 72 290 292 227 220 230 219 211 205 208
62 46 38 44 52 51 44 32 32 28 24 32 38 37 41 40 43 41 40 36 31 29 35 34 45 40 42 41 45 37 31 10 358 355 11 6 353 310 294 271 281 230 228 258 256 266 267 274 264 256 239 231 212 218 223 226 226 232 217 218 217 212 207 212 212 206 199 225 224 243 251 265 300 5 153 183 173 177 250 264 277 227 221 224 214
73 65 43 31 34 45 54 46 27 29 29 35 35 36 39 41 46 46 43 38 32 33 36 34 39 40 43 38 36 24 22 16 1 15 17 7 24 4 348 313 304 287 264 244 246 235 242 250 269 273 264 256 222 236 236 232 225 222 221 221 218 224 216 222 213 218 215 227 210 242 249 246 261 276 9 101 169 193 251 196 217 223 243 245 232
57 71 61 42 33 38 40 53 44 32 26 32 40 40 40 39 42 45 41 36 32 35 37 38 37 37 39 35 36 23 18 13 20 16 11 9 17 11 5 360 336 317 298 286 275 255 240 240 249 255 258 260 253 240 248 249 245 235 226 221 220 224 221 217 223 227 222 231 220 225 224 236 258 272 267 242 301 213 220 199 199 184 203 233 215
53 51 47 48 35 40 40 52 42 34 29 31 33 35 38 39 41 48 41 38 33 34 37 38 37 36 37 33 33 29 21 24 22 16 9 11 9 1 5 353 3 346 329 317 310 300 289 262 242 247 255 268 270 265 246 239 245 240 237 232 227 224 224 227 232 234 227 227 230 222 228 213 216 217 217 211 208 216 221 234 207 205 205 227 227
52 52 49 39 39 37 40 44 39 33 32 31 30 32 36 36 37 46 38 34 33 33 38 38 39 37 37 35 34 29 28 27 25 18 10 10 4 2 356 4 2 360 5 351 333 324 310 292 273 278 272 267 266 257 262 252 252 252 252 240 238 234 236 233 234 235 231 233 233 226 233 231 242 240 235 218 212 226 208 220 200 193 280 249 269
64 56 52 39 38 32 33 35 33 30 29 29 32 34 34 36 36 44 37 28 32 34 41 40 41 36 33 33 33 30 32 33 29 25 16 14 8 7 8 7 0 6 359 359 353 340 326 305 289 265 262 256 258 274 271 271 265 259 254 253 245 239 232 230 233 234 230 230 232 229 228 227 234 236 236 228 237 247 233 243 236 183 214 228 232
63 64 56 55 44 35 36 37 38 32 27 29 32 35 33 38 34 44 37 29 29 38 40 45 43 41 38 37 33 29 30 29 29 27 19 19 14 13 12 7 4 1 352 357 342 344 350 333 299 280 261 266 267 266 271 274 272 264 261 260 255 247 241 238 238 239 240 239 232 234 231 229 234 226 233 226 226 212 234 223 208 241 235 259 307
70 70 63 50 43 40 39 32 34 34 30 30 32 29 32 32 31 35 34 26 30 31 36 43 43 43 45 44 42 36 31 29 27 25 19 16 11 13 10 7 11 357 355 344 348 353 348 347 349 323 293 278 272 274 276 279 277 274 267 260 264 258 251 243 246 244 246 245 242 235 238 235 228 221 220 233 214 216 220 206 185 227 262 244 249
67 69 58 48 45 38 35 35 29 28 27 28 29 28 31 31 35 40 42 32 31 31 32 35 38 39 42 44 43 45 44 41 37 28 21 17 10 11 5 6 3 358 355 354 350 352 348 349 348 347 335 320 303 286 279 277 278 279 277 275 269 267 261 257 251 246 249 248 247 247 243 247 230 227 224 231 223 220 217 209 199 222 233 255 222
83 72 71 60 47 34 41 39 31 26 25 25 29 26 28 23 24 25 27 33 35 36 37 37 36 39 34 34 33 36 38 36 32 24 18 8 7 3 6 360 359 6 358 354 347 348 346 347 345 342 342 337 328 318 306 294 284 277 273 273 273 270 262 260 260 252 252 251 254 248 246 249 239 231 232 231 232 225 221 220 205 219 218 241 244
139 132 120 106 81 53 38 38 42 36 26 16 10 18 26 28 24 25 19 19 12 14 19 22 26 33 33 31 31 32 31 33 31 21 11 10 6 4 354 5 5 355 358 347 347 346 344 346 344 339 336 336 330 322 318 309 306 291 275 267 262 270 272 273 263 254 257 253 255 260 256 255 246 240 237 229 230 228 225 222 223 224 216 231 242
145 139 122 98 73 55 41 40 29 36 29 28 21 30 34 22 22 30 25 17 10 10 13 11 17 16 15 17 20 22 27 30 24 17 8 11 5 359 0 352 348 356 355 353 346 341 340 338 340 337 335 333 329 324 320 316 311 305 295 287 280 270 266 267 266 259 257 251 256 258 259 259 251 248 247 238 237 233 232 225 232 226 226 230 238
155 128 121 112 93 86 78 55 33 10 360 356 357 24 40 34 26 19 14 10 6 2 3 1 356 3 1 5 6 11 7 8 8 12 9 12 350 346 344 354 349 347 344 340 332 330 331 332 332 334 332 332 330 325 324 318 314 298 293 293 284 283 277 270 271 261 259 255 256 257 258 258 258 253 252 244 242 235 229 231 228 227 232 231 233
158 138 122 113 119 118 311 256 284 307 319 331 19 28 342 45 30 49 73 349 20 337 346 320 324 319 344 336 335 349 350 348 350 353 354 344 347 346 353 352 336 347 335 332 328 323 318 317 320 325 330 329 330 327 325 321 316 308 299 286 286 282 276 274 273 275 268 261 259 258 258 256 253 255 256 250 248 241 237 236 231 228 234 227 225
165 171 152 161 191 213 240 274 288 351 331 335 315 351 344 332 248 308 12 323 40 325 298 315 311 302 300 281 268 279 277 290 303 296 304 311 315 323 332 348 348 336 350 334 324 310 299 301 309 311 318 322 322 323 322 324 313 307 300 294 286 280 275 272 270 271 271 264 256 258 262 259 251 251 255 254 248 248 239 240 237 226 233 232 213
184 176 174 175 184 200 212 226 255 235 248 269 286 277 261 266 287 278 207 275 240 266 275 289 292 301 294 292 292 294 296 301 305 299 296 301 298 301 305 316 316 315 321 322 319 320 316 307 294 285 286 301 305 309 312 316 314 307 297 292 286 280 275 274 270 264 264 264 264 257 257 256 256 256 254 249 248 248 244 243 246 231 237 237 220
171 172 172 191 196 213 224 249 262 263 259 257 246 251 255 256 250 252 231 248 261 251 259 279 299 303 293 310 294 274 277 275 277 276 273 276 278 279 282 277 275 278 287 290 300 306 313 315 319 318 316 304 286 276 282 289 295 298 300 297 293 283 275 270 270 272 267 261 259 264 258 250 250 255 256 251 246 242 245 247 250 246 241 244 230
180 182 200 206 205 221 226 225 216 231 239 260 256 254 249 247 246 233 238 242 230 239 220 258 262 270 291 296 291 291 286 294 290 295 281 277 272 272 272 265 268 269 264 270 275 276 283 289 296 304 309 312 311 308 299 286 271 268 274 278 279 281 280 275 269 266 266 263 262 258 262 252 246 252 256 252 248 244 244 244 248 247 245 245 240
194 196 181 190 201 208 216 218 212 209 206 218 232 240 242 240 237 214 216 230 227 225 214 219 218 213 241 246 254 264 264 258 269 281 286 290 292 295 292 280 268 276 275 267 271 274 270 276 273 275 281 288 294 298 297 294 292 288 275 264 263 266 269 271 275 270 263 257 259 261 260 254 248 248 254 251 246 246 245 245 247 247 244 243 241
166 164 183 168 158 190 198 201 195 203 203 207 208 225 231 231 262 255 233 241 256 209 222 216 235 226 257 265 261 261 254 252 253 255 262 265 266 269 275 278 283 280 281 283 277 277 272 265 271 274 276 277 276 277 283 287 289 287 285 283 279 268 260 261 263 265 264 259 254 257 259 254 251 248 251 251 248 248 243 246 244 246 242 241 242
158 161 162 182 199 201 211 215 218 223 223 229 233 227 235 242 247 261 260 255 276 320 324 333 341 339 335 322 305 276 268 267 267 266 260 255 255 250 246 249 248 254 257 259 265 270 275 274 275 277 276 274 273 274 272 271 273 278 282 283 281 280 278 270 262 258 259 258 255 253 253 251 247 248 247 249 244 250 249 250 245 240 240 239 242
208 227 220 219 228 227 235 239 235 237 234 238 247 260 263 265 253 250 258 258 275 320 322 347 351 340 328 325 327 328 323 318 312 305 301 294 282 270 267 266 260 257 253 247 249 252 262 267 267 269 277 278 277 274 271 265 267 269 267 270 274 275 275 276 274 268 258 255 256 253 253 252 249 248 246 245 244 240 244 252 248 238 239 241 242
232 243 249 265 275 282 277 275 288 325 343 352 352 345 333 322 312 325 340 343 10 8 19 0 351 333 324 324 321 319 320 319 319 317 315 312 308 305 303 301 299 293 287 283 275 270 263 263 269 269 265 269 272 274 274 272 266 265 268 268 266 264 265 267 272 274 271 261 253 253 252 250 252 252 252 251 250 248 245 244 248 239 233 239 240
211 198 153 105 78 63 61 59 61 69 58 32 6 345 343 354 356 2 14 359 23 10 0 350 336 325 321 321 323 316 312 309 304 307 307 309 310 310 310 308 307 305 302 298 293 290 289 286 285 285 283 275 270 269 265 267 271 272 273 272 268 266 262 262 262 265 270 272 269 260 256 254 253 254 253 252 250 250 249 249 248 244 237 233 237
173 131 112 94 91 91 86 87 79 66 50 31 5 352 18 12 6 18 356 358 8 0 347 331 322 326 330 326 313 307 304 301 305 303 305 306 310 312 313 313 311 310 307 303 298 292 290 291 290 289 287 285 283 273 275 277 277 276 274 271 270 270 267 263 259 257 258 262 268 271 266 259 250 246 247 249 249 248 248 249 249 248 244 240 236
165 132 116 122 122 124 123 120 104 67 45 5 15 26 22 1 10 341 349 0 353 349 343 338 333 329 315 308 306 304 305 307 309 310 309 313 313 313 312 313 312 312 311 306 299 298 295 293 290 289 287 286 284 282 284 285 285 283 282 280 274 271 271 269 267 264 263 261 257 256 263 261 256 250 247 246 245 247 248 248 249 249 247 244 243
167 153 135 132 137 130 133 134 127 109 78 41 55 48 6 9 2 360 6 355 351 342 337 320 315 315 314 312 310 310 306 307 313 318 319 315 313 308 307 307 308 309 306 304 303 300 298 295 293 292 291 290 286 286 287 288 287 286 285 284 279 277 274 271 270 268 267 265 261 259 257 255 254 252 245 244 242 243 244 246 248 247 246 246 245
165 154 143 142 132 122 113 77 56 55 50 48 36 22 2 10 6 356 355 353 337 326 318 316 314 316 320 317 313 310 311 316 318 316 312 307 304 305 306 309 310 307 306 305 305 305 301 299 295 294 291 289 286 288 290 290 290 290 289 288 285 282 279 277 275 271 267 264 262 260 257 256 255 252 247 240 241 240 241 241 242 244 243 242 242
198 166 168 146 142 135 132 110 77 67 59 50 32 8 13 357 357 353 340 334 322 312 308 310 309 314 317 320 324 322 320 319 316 313 309 308 310 311 312 315 311 303 299 299 294 297 295 297 297 295 293 290 289 291 291 293 293 292 292 290 286 282 280 277 274 273 270 267 264 260 258 257 255 256 249 243 241 240 241 240 241 242 244 242 242
197 161 149 144 147 143 127 99 84 76 61 38 13 14 8 354 348 335 328 318 315 308 308 310 310 318 325 331 332 325 320 318 317 315 313 311 311 309 306 308 299 294 292 292 292 293 293 294 296 297 296 294 293 294 295 295 294 294 294 292 289 284 278 275 272 272 270 268 265 261 258 259 259 260 254 250 246 243 242 240 241 242 243 243 245
141 120 127 143 127 95 89 103 100 79 63 35 19 19 5 344 327 319 317 310 305 300 305 311 321 330 329 329 329 325 319 318 317 313 310 307 305 298 294 301 296 298 295 293 297 296 291 290 290 293 294 296 295 298 300 301 298 297 296 295 295 292 287 282 279 275 274 271 267 264 261 261 261 261 258 254 249 244 245 242 242 241 243 243 245
153 143 136 119 106 112 108 93 86 71 38 32 23 20 353 326 314 311 308 301 302 304 320 329 326 326 325 326 324 320 315 312 308 305 305 302 301 299 298 299 293 291 291 293 293 290 288 287 291 296 300 299 299 300 301 302 300 299 297 292 288 281 281 275 276 275 273 272 272 270 267 263 259 259 257 256 254 247 245 241 242 240 241 241 241
114 102 116 120 121 93 75 78 80 69 49 33 20 360 331 311 307 304 302 299 302 322 331 325 319 318 319 314 313 309 304 302 301 299 297 294 297 298 297 297 294 289 289 290 292 288 290 290 295 293 291 291 293 292 296 300 300 299 298 295 287 285 282 283 282 281 280 271 266 266 265 266 267 268 267 265 261 254 247 242 239 240 238 242 237
130 120 115 97 88 94 96 98 92 60 35 21 1 344 315 303 300 300 292 300 318 327 320 315 313 308 305 303 300 298 298 296 292 293 294 293 293 293 295 293 291 292 287 288 289 288 286 287 292 289 286 285 285 293 298 303 304 305 305 304 296 288 283 279 276 273 265 268 267 264 265 269 271 271 270 268 266 262 254 243 238 240 236 239 237
106 110 102 105 93 90 88 85 79 45 39 12 352 328 304 303 301 289 292 315 321 313 309 306 303 300 298 296 295 292 288 290 293 293 293 290 287 285 287 290 287 288 289 287 288 289 288 288 288 285 287 290 293 298 301 305 305 304 304 302 298 293 292 289 286 278 274 268 263 260 255 259 263 265 266 267 266 264 259 251 241 236 236 237 240
133 90 82 111 107 96 99 104 51 36 29 351 352 316 304 303 295 294 311 313 307 306 302 299 298 296 296 294 293 291 292 293 291 290 288 290 292 290 287 287 287 287 285 286 287 286 288 291 292 288 286 291 294 296 301 302 304 304 304 302 300 299 297 295 293 290 289 286 287 285 278 275 273 272 272 270 268 264 262 255 252 245 237 235 239
95 109 109 93 96 103 93 64 353 28 12 348 331 309 303 300 292 304 310 304 301 298 296 296 294 293 294 294 293 293 290 288 289 290 288 287 291 287 286 285 285 286 290 290 291 290 291 292 295 295 290 289 289 288 296 299 300 300 301 300 300 299 298 295 292 287 289 288 288 288 291 291 288 285 280 274 268 262 257 257 254 251 246 243 240
140 117 102 85 90 38 348 336 310 9 338 331 323 315 302 293 294 312 305 303 300 299 298 296 294 294 294 293 294 292 292 290 286 287 292 293 290 291 292 288 287 288 287 289 290 292 291 292 291 293 292 287 286 285 283 288 290 293 295 295 295 293 292 291 289 288 286 289 288 290 291 290 287 282 279 277 277 277 271 260 253 248 246 246 244
118 117 95 98 66 10 341 321 322 300 317 313 319 301 295 289 302 303 300 299 300 302 300 297 297 297 298 299 299 296 289 285 286 287 287 287 289 295 293 294 291 288 290 290 289 290 287 288 285 284 283 281 280 277 276 277 280 283 282 282 284 285 286 286 285 283 285 287 287 284 284 287 289 289 289 290 282 271 266 267 263 255 249 245 240
128 136 117 51 23 343 323 317 312 305 301 303 295 279 274 290 295 297 298 300 300 300 299 300 301 303 300 299 299 301 300 298 301 298 290 286 290 288 288 289 289 288 286 285 287 287 286 282 278 280 278 279 271 270 274 273 272 274 270 270 273 272 274 278 280 277 276 278 282 284 282 282 282 285 288 289 289 283 271 260 256 253 247 242 237
130 127 97 65 8 324 306 304 302 303 310 295 290 284 283 285 287 290 294 298 299 299 301 303 304 304 302 303 300 292 296 306 303 299 298 296 291 288 286 285 286 285 286 283 282 281 281 282 282 284 283 281 281 276 272 276 275 270 269 268 264 262 261 252 263 268 265 269 272 276 280 279 279 279 282 282 278 279 266 252 247 242 237 231 231
111 95 65 11 318 300 286 294 293 302 302 296 283 283 284 287 293 297 298 300 299 300 299 298 299 302 301 300 297 300 304 303 301 295 288 287 291 291 286 279 271 263 270 279 282 285 286 287 285 290 296 294 291 290 286 294 293 296 298 297 291 285 274 269 264 273 275 268 264 268 265 271 271 277 283 282 284 284 280 260 243 234 228 226 227
102 90 28 318 284 271 292 294 294 304 301 294 288 287 290 290 293 291 295 297 301 303 302 300 302 301 301 302 302 303 304 301 297 299 299 294 287 295 293 293 292 293 295 296 297 296 297 298 298 293 290 296 298 297 303 305 305 304 301 298 296 296 296 294 293 293 292 290 285 282 282 280 279 279 276 275 279 284 289 278 259 247 242 235 229
41 354 323 303 286 290 292 294 295 300 296 295 297 298 298 294 290 293 294 293 298 302 302 301 305 304 305 306 305 304 303 299 296 297 297 298 301 301 300 298 297 298 299 300 301 301 302 303 303 302 302 302 303 305 306 304 303 302 300 299 299 298 297 295 295 294 289 280 278 273 275 275 275 272 270 270 276 279 280 286 278 257 243 235 229